Location: Biltmore Gardens
(41.6070°N, 83.4666°W)
Time: 10:58:31
(UTC+00:00)

Vanguard 3 - Pass Details

Date: 28 April 2021
Orbit: 508 x 3262 km, 33.3° (Epoch: 08 May)

Event Time Altitude Azimuth Distance (km) Brightness Sun altitude
Rises 04:31:40 0° 241° (WSW) 5,596 11.3 -32.5°
Reaches altitude 10° 04:36:20 10° 234° (SW) 4,105 10.5 -32.7°
Enters shadow 04:36:50 11° 233° (SW) 3,948 10.4 -32.8°
